QPF
0.03 0.04 0.05 0.06 0.05 0.06 0.05 0.04 0.04 0.03 0.02 0.01 0.01 0.00 0.00 0.01 0.01 0.01 0.01 0.02 0.02 0.03 0.03 0.03 0.03 0.04 0.04 0.04 0.04 0.04 0.05 0.05 0.05 0.03 0.02 0.03 0.04 0.04 0.04 0.05 0.06 0.06 0.06
0.02 0.02 0.03 0.04 0.06 0.06 0.07 0.06 0.04 0.03 0.02 0.01 0.01 0.01 0.01 0.01 0.01 0.02 0.02 0.02 0.02 0.02 0.03 0.03 0.03 0.03 0.04 0.04 0.04 0.05 0.05 0.05 0.05 0.04 0.03 0.03 0.04 0.04 0.04 0.04 0.06 0.07 0.07
0.01 0.01 0.01 0.02 0.03 0.04 0.05 0.06 0.05 0.03 0.02 0.01 0.01 0.01 0.01 0.01 0.01 0.02 0.02 0.03 0.03 0.03 0.03 0.03 0.03 0.03 0.03 0.03 0.04 0.05 0.05 0.06 0.06 0.05 0.04 0.04 0.03 0.03 0.04 0.04 0.05 0.06 0.08
0.01 0.01 0.01 0.02 0.02 0.02 0.03 0.03 0.03 0.03 0.03 0.02 0.01 0.01 0.01 0.01 0.01 0.01 0.02 0.03 0.03 0.04 0.04 0.04 0.03 0.03 0.03 0.04 0.04 0.04 0.04 0.04 0.05 0.05 0.05 0.05 0.05 0.04 0.05 0.06 0.06 0.07 0.08
0.01 0.01 0.01 0.01 0.01 0.02 0.02 0.02 0.02 0.02 0.02 0.02 0.01 0.01 0.01 0.01 0.01 0.02 0.02 0.02 0.02 0.03 0.03 0.04 0.04 0.04 0.04 0.05 0.05 0.05 0.05 0.04 0.04 0.04 0.05 0.05 0.05 0.05 0.06 0.07 0.08 0.08 0.07
0.01 0.01 0.01 0.01 0.01 0.01 0.01 0.01 0.01 0.01 0.01 0.01 0.01 0.02 0.02 0.01 0.02 0.02 0.03 0.03 0.03 0.03 0.04 0.04 0.04 0.04 0.05 0.06 0.07 0.07 0.06 0.06 0.06 0.06 0.05 0.04 0.03 0.04 0.06 0.07 0.09 0.09 0.08
0.01 0.00 0.00 0.01 0.01 0.01 0.01 0.01 0.01 0.01 0.01 0.01 0.01 0.02 0.02 0.01 0.01 0.02 0.03 0.03 0.03 0.04 0.05 0.04 0.04 0.04 0.05 0.06 0.07 0.07 0.07 0.08 0.08 0.06 0.05 0.04 0.04 0.04 0.07 0.09 0.09 0.09 0.08
0.01 0.00 0.00 0.01 0.01 0.01 0.01 0.01 0.00 0.00 0.01 0.01 0.01 0.01 0.01 0.01 0.01 0.01 0.01 0.01 0.02 0.03 0.04 0.04 0.04 0.05 0.05 0.06 0.05 0.05 0.05 0.06 0.05 0.05 0.05 0.05 0.05 0.06 0.07 0.09 0.10 0.10 0.10
0.01 0.00 0.00 0.01 0.01 0.01 0.01 0.01 0.01 0.01 0.01 0.01 0.01 0.02 0.01 0.01 0.01 0.01 0.01 0.01 0.01 0.03 0.05 0.05 0.05 0.07 0.08 0.07 0.05 0.04 0.05 0.04 0.04 0.05 0.05 0.06 0.07 0.08 0.08 0.10 0.11 0.12 0.12
0.02 0.01 0.01 0.01 0.02 0.01 0.02 0.01 0.01 0.01 0.01 0.02 0.02 0.02 0.02 0.01 0.02 0.01 0.01 0.01 0.01 0.02 0.04 0.06 0.08 0.09 0.08 0.09 0.06 0.05 0.05 0.04 0.04 0.05 0.06 0.06 0.06 0.08 0.09 0.09 0.10 0.12 0.12
0.03 0.02 0.02 0.02 0.02 0.02 0.02 0.02 0.02 0.02 0.02 0.02 0.03 0.03 0.03 0.03 0.03 0.03 0.03 0.02 0.02 0.02 0.03 0.05 0.07 0.08 0.08 0.09 0.09 0.08 0.07 0.05 0.05 0.05 0.06 0.06 0.06 0.07 0.09 0.08 0.10 0.10 0.09
0.03 0.03 0.03 0.03 0.03 0.03 0.02 0.02 0.02 0.02 0.02 0.02 0.03 0.03 0.03 0.03 0.03 0.03 0.03 0.03 0.04 0.04 0.04 0.04 0.05 0.07 0.08 0.10 0.10 0.10 0.09 0.08 0.07 0.07 0.07 0.07 0.07 0.08 0.09 0.08 0.08 0.08 0.08
0.03 0.03 0.03 0.03 0.04 0.03 0.03 0.03 0.03 0.03 0.03 0.03 0.03 0.03 0.03 0.03 0.03 0.03 0.03 0.03 0.04 0.04 0.04 0.04 0.05 0.06 0.08 0.09 0.10 0.10 0.10 0.08 0.08 0.08 0.08 0.08 0.08 0.08 0.08 0.09 0.08 0.08 0.08
0.03 0.03 0.03 0.03 0.03 0.03 0.03 0.02 0.02 0.03 0.03 0.03 0.03 0.03 0.03 0.03 0.03 0.03 0.03 0.03 0.04 0.04 0.03 0.03 0.04 0.05 0.06 0.08 0.09 0.09 0.09 0.08 0.08 0.08 0.07 0.07 0.07 0.08 0.08 0.08 0.08 0.07 0.07
0.01 0.01 0.02 0.03 0.02 0.02 0.02 0.02 0.01 0.02 0.02 0.03 0.02 0.02 0.02 0.03 0.03 0.03 0.03 0.04 0.04 0.04 0.04 0.04 0.05 0.06 0.06 0.06 0.06 0.07 0.08 0.08 0.07 0.07 0.07 0.06 0.06 0.07 0.07 0.08 0.08 0.07 0.06
0.01 0.01 0.01 0.02 0.02 0.02 0.02 0.02 0.01 0.01 0.01 0.02 0.02 0.02 0.02 0.03 0.03 0.04 0.04 0.05 0.05 0.05 0.06 0.06 0.06 0.06 0.05 0.05 0.04 0.05 0.05 0.06 0.06 0.07 0.07 0.06 0.06 0.06 0.06 0.07 0.07 0.07 0.06
0.01 0.01 0.01 0.01 0.02 0.02 0.02 0.02 0.01 0.01 0.01 0.01 0.02 0.02 0.02 0.02 0.03 0.03 0.03 0.04 0.04 0.04 0.04 0.04 0.04 0.04 0.04 0.04 0.03 0.03 0.04 0.04 0.05 0.05 0.06 0.06 0.05 0.05 0.05 0.06 0.06 0.06 0.06
0.01 0.01 0.01 0.01 0.01 0.01 0.02 0.02 0.01 0.01 0.01 0.01 0.01 0.02 0.03 0.03 0.03 0.03 0.03 0.03 0.03 0.03 0.04 0.03 0.03 0.03 0.03 0.03 0.03 0.02 0.03 0.03 0.04 0.04 0.05 0.05 0.05 0.05 0.06 0.06 0.06 0.06 0.06
0.01 0.01 0.01 0.01 0.01 0.01 0.01 0.02 0.02 0.02 0.02 0.02 0.02 0.02 0.03 0.03 0.03 0.04 0.03 0.03 0.03 0.03 0.03 0.03 0.03 0.03 0.02 0.02 0.03 0.03 0.03 0.03 0.04 0.04 0.04 0.05 0.05 0.05 0.05 0.05 0.05 0.06 0.06
0.01 0.02 0.02 0.02 0.01 0.02 0.02 0.02 0.02 0.03 0.03 0.03 0.03 0.03 0.03 0.03 0.04 0.03 0.03 0.03 0.03 0.03 0.02 0.02 0.03 0.03 0.02 0.02 0.03 0.04 0.04 0.04 0.03 0.03 0.03 0.03 0.04 0.05 0.05 0.05 0.05 0.05 0.05
0.02 0.02 0.02 0.02 0.02 0.03 0.03 0.03 0.03 0.03 0.03 0.03 0.03 0.04 0.04 0.04 0.04 0.03 0.03 0.03 0.03 0.02 0.02 0.02 0.03 0.03 0.03 0.03 0.03 0.04 0.04 0.04 0.03 0.03 0.03 0.03 0.03 0.04 0.05 0.05 0.04 0.04 0.04
0.02 0.02 0.02 0.03 0.03 0.03 0.03 0.03 0.03 0.03 0.03 0.03 0.03 0.04 0.04 0.03 0.04 0.04 0.03 0.02 0.02 0.02 0.02 0.02 0.02 0.03 0.03 0.03 0.03 0.04 0.04 0.03 0.03 0.03 0.03 0.04 0.04 0.04 0.04 0.04 0.04 0.04 0.04
0.02 0.02 0.02 0.03 0.03 0.03 0.04 0.03 0.03 0.03 0.02 0.03 0.03 0.03 0.03 0.03 0.03 0.03 0.03 0.02 0.02 0.02 0.02 0.02 0.03 0.03 0.02 0.03 0.03 0.03 0.03 0.03 0.02 0.02 0.03 0.04 0.04 0.04 0.04 0.04 0.04 0.04 0.04
0.03 0.03 0.03 0.03 0.03 0.03 0.03 0.03 0.03 0.02 0.02 0.02 0.02 0.03 0.03 0.03 0.03 0.03 0.03 0.03 0.03 0.03 0.03 0.03 0.03 0.03 0.03 0.03 0.03 0.03 0.02 0.03 0.03 0.03 0.03 0.04 0.04 0.04 0.04 0.04 0.04 0.04 0.04
0.03 0.04 0.04 0.04 0.04 0.04 0.03 0.03 0.02 0.02 0.02 0.02 0.02 0.03 0.02 0.02 0.03 0.03 0.03 0.04 0.04 0.04 0.04 0.03 0.03 0.03 0.03 0.03 0.02 0.03 0.03 0.04 0.04 0.04 0.04 0.05 0.05 0.04 0.04 0.04 0.04 0.04 0.03
0.04 0.04 0.05 0.05 0.05 0.04 0.03 0.03 0.03 0.03 0.02 0.02 0.02 0.02 0.02 0.02 0.03 0.03 0.04 0.04 0.04 0.04 0.04 0.04 0.03 0.03 0.03 0.03 0.03 0.03 0.04 0.04 0.04 0.04 0.05 0.05 0.05 0.04 0.03 0.03 0.03 0.03 0.03
MSLP
1008.27 1008.77 1009.27 1009.76 1010.24 1010.72 1011.22 1011.75 1012.31 1012.90 1013.49 1014.06 1014.58 1015.03 1015.41 1015.71 1015.96 1016.20 1016.43 1016.68 1016.95 1017.22 1017.47 1017.66 1017.75 1017.70 1017.51 1017.16 1016.68 1016.10 1015.45 1014.77 1014.08 1013.40 1012.74 1012.07 1011.39 1010.69 1009.95 1009.18 1008.40 1007.60 1006.82
1007.98 1008.36 1008.76 1009.18 1009.60 1010.05 1010.54 1011.07 1011.65 1012.25 1012.87 1013.47 1014.02 1014.50 1014.91 1015.26 1015.55 1015.81 1016.06 1016.30 1016.55 1016.79 1016.99 1017.12 1017.16 1017.07 1016.85 1016.50 1016.05 1015.51 1014.91 1014.29 1013.65 1013.01 1012.34 1011.65 1010.92 1010.13 1009.30 1008.44 1007.56 1006.69 1005.84
1007.80 1008.07 1008.36 1008.69 1009.05 1009.45 1009.91 1010.44 1011.01 1011.63 1012.26 1012.88 1013.47 1013.99 1014.44 1014.83 1015.15 1015.44 1015.70 1015.95 1016.18 1016.37 1016.52 1016.59 1016.56 1016.43 1016.19 1015.85 1015.42 1014.93 1014.40 1013.84 1013.26 1012.65 1012.00 1011.28 1010.50 1009.64 1008.72 1007.76 1006.78 1005.82 1004.91
1007.77 1007.92 1008.11 1008.35 1008.64 1008.99 1009.42 1009.92 1010.48 1011.10 1011.74 1012.38 1012.98 1013.53 1014.01 1014.43 1014.79 1015.10 1015.37 1015.60 1015.80 1015.95 1016.04 1016.05 1015.97 1015.80 1015.53 1015.19 1014.79 1014.35 1013.88 1013.39 1012.86 1012.29 1011.65 1010.93 1010.10 1009.17 1008.17 1007.12 1006.05 1005.01 1004.04
1007.90 1007.95 1008.05 1008.21 1008.43 1008.73 1009.12 1009.59 1010.13 1010.74 1011.37 1012.00 1012.61 1013.17 1013.66 1014.09 1014.46 1014.77 1015.03 1015.24 1015.40 1015.51 1015.54 1015.49 1015.37 1015.16 1014.88 1014.54 1014.16 1013.76 1013.35 1012.91 1012.43 1011.90 1011.27 1010.53 1009.67 1008.69 1007.62 1006.50 1005.36 1004.26 1003.24
1008.21 1008.17 1008.20 1008.29 1008.45 1008.71 1009.05 1009.49 1010.01 1010.58 1011.19 1011.80 1012.38 1012.92 1013.39 1013.81 1014.16 1014.45 1014.68 1014.86 1014.98 1015.04 1015.02 1014.93 1014.76 1014.52 1014.22 1013.88 1013.53 1013.16 1012.78 1012.38 1011.93 1011.42 1010.80 1010.05 1009.17 1008.16 1007.04 1005.87 1004.69 1003.55 1002.51
1008.67 1008.58 1008.54 1008.58 1008.70 1008.92 1009.23 1009.63 1010.11 1010.64 1011.20 1011.76 1012.29 1012.78 1013.20 1013.57 1013.87 1014.12 1014.32 1014.45 1014.53 1014.55 1014.49 1014.36 1014.16 1013.90 1013.58 1013.25 1012.89 1012.53 1012.17 1011.78 1011.35 1010.85 1010.23 1009.47 1008.57 1007.54 1006.41 1005.21 1004.02 1002.87 1001.84
1009.25 1009.11 1009.04 1009.04 1009.13 1009.32 1009.60 1009.97 1010.40 1010.88 1011.38 1011.86 1012.32 1012.72 1013.07 1013.36 1013.60 1013.78 1013.93 1014.02 1014.06 1014.04 1013.96 1013.81 1013.59 1013.32 1012.99 1012.65 1012.28 1011.92 1011.54 1011.15 1010.71 1010.19 1009.55 1008.79 1007.88 1006.85 1005.71 1004.52 1003.34 1002.22 1001.22
1009.88 1009.71 1009.61 1009.59 1009.66 1009.83 1010.08 1010.42 1010.80 1011.22 1011.64 1012.04 1012.40 1012.70 1012.95 1013.15 1013.31 1013.43 1013.51 1013.57 1013.58 1013.55 1013.46 1013.31 1013.09 1012.81 1012.49 1012.13 1011.74 1011.35 1010.94 1010.51 1010.03 1009.48 1008.82 1008.04 1007.13 1006.10 1004.99 1003.83 1002.68 1001.61 1000.66
1010.51 1010.32 1010.19 1010.16 1010.21 1010.36 1010.59 1010.89 1011.23 1011.58 1011.92 1012.22 1012.48 1012.68 1012.82 1012.93 1013.00 1013.05 1013.09 1013.12 1013.13 1013.10 1013.02 1012.88 1012.68 1012.41 1012.09 1011.72 1011.31 1010.87 1010.41 1009.92 1009.39 1008.78 1008.09 1007.28 1006.37 1005.36 1004.27 1003.16 1002.08 1001.07 1000.19
1011.08 1010.87 1010.72 1010.67 1010.70 1010.83 1011.04 1011.30 1011.59 1011.87 1012.13 1012.34 1012.50 1012.59 1012.64 1012.66 1012.66 1012.66 1012.67 1012.69 1012.71 1012.70 1012.66 1012.56 1012.39 1012.14 1011.82 1011.44 1010.99 1010.51 1009.99 1009.42 1008.81 1008.15 1007.40 1006.58 1005.66 1004.67 1003.63 1002.58 1001.56 1000.63 999.83
1011.58 1011.34 1011.17 1011.09 1011.10 1011.20 1011.37 1011.59 1011.83 1012.05 1012.23 1012.36 1012.42 1012.43 1012.40 1012.35 1012.30 1012.27 1012.27 1012.29 1012.34 1012.38 1012.38 1012.33 1012.21 1011.99 1011.68 1011.28 1010.81 1010.27 1009.68 1009.04 1008.35 1007.62 1006.83 1005.97 1005.06 1004.10 1003.11 1002.13 1001.19 1000.34 999.62
1011.99 1011.71 1011.52 1011.40 1011.38 1011.45 1011.58 1011.75 1011.93 1012.09 1012.20 1012.26 1012.24 1012.18 1012.09 1011.99 1011.91 1011.87 1011.88 1011.94 1012.02 1012.11 1012.18 1012.19 1012.11 1011.93 1011.64 1011.24 1010.73 1010.14 1009.48 1008.77 1008.01 1007.22 1006.38 1005.51 1004.60 1003.68 1002.75 1001.84 1000.99 1000.23 999.59
1012.32 1012.01 1011.78 1011.63 1011.57 1011.59 1011.68 1011.80 1011.92 1012.02 1012.07 1012.05 1011.99 1011.87 1011.74 1011.61 1011.52 1011.49 1011.52 1011.62 1011.75 1011.90 1012.03 1012.10 1012.07 1011.93 1011.66 1011.25 1010.72 1010.09 1009.38 1008.60 1007.78 1006.94 1006.07 1005.19 1004.31 1003.43 1002.57 1001.74 1000.98 1000.31 999.75
1012.56 1012.23 1011.97 1011.79 1011.68 1011.66 1011.69 1011.76 1011.82 1011.86 1011.85 1011.79 1011.68 1011.53 1011.37 1011.24 1011.15 1011.14 1011.20 1011.33 1011.52 1011.72 1011.91 1012.03 1012.04 1011.93 1011.68 1011.27 1010.73 1010.07 1009.31 1008.50 1007.64 1006.76 1005.88 1005.01 1004.16 1003.34 1002.55 1001.81 1001.14 1000.56 1000.09
1012.73 1012.38 1012.10 1011.89 1011.75 1011.68 1011.66 1011.67 1011.68 1011.67 1011.61 1011.50 1011.36 1011.19 1011.02 1010.89 1010.82 1010.82 1010.91 1011.08 1011.31 1011.55 1011.77 1011.93 1011.98 1011.90 1011.66 1011.25 1010.70 1010.03 1009.26 1008.42 1007.54 1006.66 1005.79 1004.94 1004.13 1003.37 1002.67 1002.02 1001.45 1000.97 1000.57
1012.78 1012.45 1012.16 1011.94 1011.78 1011.67 1011.62 1011.58 1011.54 1011.47 1011.37 1011.24 1011.06 1010.88 1010.71 1010.58 1010.52 1010.55 1010.66 1010.85 1011.10 1011.37 1011.61 1011.79 1011.86 1011.79 1011.56 1011.16 1010.61 1009.94 1009.16 1008.32 1007.45 1006.58 1005.73 1004.93 1004.18 1003.49 1002.88 1002.33 1001.85 1001.46 1001.15
1012.71 1012.41 1012.14 1011.92 1011.76 1011.64 1011.55 1011.48 1011.40 1011.30 1011.16 1011.00 1010.81 1010.62 1010.45 1010.32 1010.27 1010.31 1010.43 1010.63 1010.89 1011.16 1011.41 1011.58 1011.66 1011.59 1011.36 1010.97 1010.43 1009.77 1009.01 1008.19 1007.34 1006.50 1005.70 1004.95 1004.27 1003.66 1003.12 1002.67 1002.29 1001.98 1001.75
1012.49 1012.24 1012.02 1011.84 1011.69 1011.57 1011.47 1011.37 1011.27 1011.14 1010.98 1010.79 1010.59 1010.39 1010.22 1010.10 1010.06 1010.10 1010.22 1010.42 1010.66 1010.92 1011.15 1011.32 1011.37 1011.30 1011.07 1010.69 1010.16 1009.52 1008.79 1008.00 1007.20 1006.41 1005.66 1004.97 1004.36 1003.83 1003.38 1003.01 1002.71 1002.48 1002.33
1012.13 1011.96 1011.80 1011.66 1011.54 1011.44 1011.34 1011.24 1011.11 1010.96 1010.79 1010.59 1010.38 1010.18 1010.02 1009.90 1009.86 1009.90 1010.01 1010.20 1010.42 1010.65 1010.85 1010.99 1011.02 1010.93 1010.70 1010.32 1009.82 1009.20 1008.51 1007.77 1007.02 1006.29 1005.60 1004.98 1004.44 1003.98 1003.61 1003.32 1003.10 1002.94 1002.84
1011.66 1011.56 1011.47 1011.39 1011.31 1011.24 1011.15 1011.05 1010.92 1010.76 1010.57 1010.37 1010.16 1009.97 1009.81 1009.71 1009.67 1009.70 1009.80 1009.96 1010.15 1010.35 1010.51 1010.61 1010.62 1010.50 1010.27 1009.90 1009.41 1008.83 1008.18 1007.50 1006.81 1006.15 1005.53 1004.99 1004.52 1004.13 1003.82 1003.60 1003.44 1003.34 1003.29
1011.10 1011.08 1011.06 1011.03 1011.00 1010.95 1010.88 1010.78 1010.65 1010.50 1010.31 1010.11 1009.92 1009.74 1009.59 1009.49 1009.46 1009.49 1009.58 1009.71 1009.87 1010.03 1010.15 1010.20 1010.17 1010.04 1009.79 1009.43 1008.97 1008.43 1007.84 1007.22 1006.60 1006.01 1005.47 1005.00 1004.60 1004.28 1004.04 1003.86 1003.75 1003.70 1003.68
1010.50 1010.54 1010.58 1010.60 1010.60 1010.58 1010.53 1010.44 1010.32 1010.17 1009.99 1009.81 1009.63 1009.47 1009.34 1009.26 1009.24 1009.27 1009.34 1009.46 1009.58 1009.69 1009.77 1009.79 1009.72 1009.57 1009.31 1008.96 1008.53 1008.03 1007.49 1006.94 1006.40 1005.89 1005.43 1005.03 1004.71 1004.45 1004.27 1004.14 1004.07 1004.04 1004.06
1009.88 1009.97 1010.04 1010.10 1010.13 1010.13 1010.10 1010.02 1009.91 1009.78 1009.62 1009.46 1009.31 1009.18 1009.08 1009.03 1009.02 1009.05 1009.12 1009.20 1009.30 1009.37 1009.41 1009.38 1009.28 1009.11 1008.85 1008.51 1008.11 1007.66 1007.18 1006.71 1006.25 1005.82 1005.44 1005.13 1004.87 1004.68 1004.54 1004.46 1004.42 1004.42 1004.44
1009.24 1009.35 1009.46 1009.54 1009.60 1009.62 1009.60 1009.54 1009.46 1009.35 1009.22 1009.10 1008.99 1008.90 1008.83 1008.81 1008.81 1008.85 1008.91 1008.98 1009.04 1009.08 1009.07 1009.01 1008.89 1008.69 1008.43 1008.11 1007.74 1007.34 1006.94 1006.53 1006.16 1005.81 1005.52 1005.28 1005.10 1004.97 1004.88 1004.84 1004.83 1004.85 1004.88
1008.53 1008.68 1008.81 1008.92 1008.99 1009.04 1009.04 1009.02 1008.97 1008.90 1008.82 1008.75 1008.68 1008.64 1008.62 1008.63 1008.65 1008.70 1008.76 1008.81 1008.84 1008.84 1008.80 1008.71 1008.56 1008.35 1008.09 1007.79 1007.46 1007.11 1006.77 1006.44 1006.15 1005.89 1005.68 1005.51 1005.40 1005.32 1005.29 1005.28 1005.30 1005.32 1005.36
Thickness
5538 5538 5536 5535 5535 5534 5534 5534 5534 5534 5534 5533 5532 5531 5529 5527 5525 5522 5521 5519 5517 5515 5513 5512 5511 5509 5508 5506 5505 5503 5501 5500 5502 5511 5510 5508 5507 5506 5506 5506 5506 5506 5507
5526 5526 5524 5524 5523 5523 5523 5522 5522 5523 5523 5522 5521 5520 5518 5516 5514 5511 5508 5507 5505 5504 5503 5501 5501 5499 5498 5497 5496 5495 5493 5492 5491 5495 5498 5497 5496 5495 5495 5495 5495 5496 5497
5515 5514 5512 5512 5511 5511 5511 5511 5511 5512 5512 5511 5509 5508 5506 5504 5502 5500 5498 5496 5494 5492 5491 5491 5491 5490 5489 5489 5488 5487 5486 5485 5483 5483 5486 5486 5485 5484 5484 5485 5486 5487 5489
5503 5502 5502 5501 5501 5501 5501 5501 5501 5501 5500 5499 5498 5496 5495 5493 5491 5489 5487 5485 5483 5483 5482 5481 5482 5481 5481 5480 5480 5480 5479 5477 5475 5474 5475 5475 5474 5474 5473 5474 5477 5479 5482
5492 5492 5491 5491 5491 5490 5490 5490 5490 5489 5489 5488 5487 5485 5483 5482 5481 5479 5478 5476 5475 5474 5474 5473 5473 5473 5474 5473 5473 5473 5471 5469 5467 5466 5466 5465 5465 5464 5465 5466 5468 5472 5475
5482 5482 5482 5481 5481 5480 5479 5479 5479 5478 5477 5476 5476 5475 5473 5473 5472 5471 5469 5468 5467 5466 5466 5466 5465 5466 5467 5467 5467 5466 5464 5462 5461 5459 5458 5457 5458 5458 5458 5458 5461 5463 5468
5471 5471 5471 5470 5470 5469 5468 5468 5467 5466 5466 5465 5465 5464 5464 5463 5462 5462 5461 5460 5459 5458 5458 5458 5458 5459 5459 5459 5459 5459 5458 5457 5455 5453 5452 5452 5453 5454 5453 5454 5455 5457 5460
5459 5459 5459 5458 5458 5457 5457 5456 5455 5455 5455 5455 5455 5455 5454 5454 5454 5454 5453 5452 5451 5450 5450 5449 5450 5451 5451 5450 5451 5452 5452 5451 5449 5447 5447 5448 5448 5449 5449 5449 5450 5452 5454
5447 5447 5447 5447 5446 5446 5445 5445 5445 5445 5446 5445 5445 5445 5445 5445 5445 5445 5444 5443 5443 5443 5443 5442 5443 5443 5444 5444 5444 5445 5445 5445 5444 5443 5442 5442 5443 5444 5444 5443 5444 5446 5447
5435 5435 5436 5436 5436 5435 5435 5434 5435 5435 5435 5436 5436 5436 5436 5436 5436 5436 5435 5434 5435 5435 5436 5436 5436 5437 5438 5437 5436 5437 5436 5436 5435 5435 5436 5436 5436 5437 5439 5438 5439 5440 5440
5423 5424 5425 5425 5425 5425 5425 5425 5424 5425 5425 5426 5426 5427 5427 5427 5427 5427 5427 5426 5427 5427 5428 5428 5429 5429 5430 5431 5430 5429 5429 5428 5428 5428 5428 5428 5429 5430 5432 5432 5433 5433 5433
5411 5413 5414 5415 5416 5416 5415 5415 5415 5415 5416 5416 5417 5418 5418 5418 5419 5419 5419 5418 5419 5419 5420 5420 5420 5421 5422 5422 5422 5422 5422 5422 5421 5421 5421 5421 5422 5423 5424 5424 5424 5425 5426
5399 5401 5403 5404 5405 5406 5405 5405 5406 5406 5406 5407 5408 5408 5409 5410 5410 5410 5410 5411 5411 5411 5411 5412 5412 5413 5413 5413 5414 5414 5414 5413 5413 5413 5413 5413 5414 5414 5415 5416 5417 5418 5419
5388 5390 5392 5393 5395 5396 5397 5397 5397 5397 5397 5398 5399 5399 5400 5401 5401 5401 5401 5402 5403 5403 5403 5404 5405 5405 5404 5405 5405 5405 5405 5405 5405 5405 5405 5405 5406 5406 5407 5408 5409 5410 5411
5378 5380 5381 5383 5384 5386 5387 5387 5388 5389 5388 5389 5390 5390 5391 5392 5394 5393 5393 5394 5394 5394 5394 5395 5396 5396 5395 5396 5397 5397 5397 5397 5397 5398 5398 5398 5398 5399 5400 5401 5402 5403 5404
5369 5370 5371 5373 5374 5376 5377 5378 5379 5380 5382 5383 5383 5383 5384 5385 5387 5387 5388 5389 5389 5388 5387 5387 5388 5387 5387 5388 5389 5390 5390 5390 5390 5391 5391 5391 5392 5392 5393 5394 5395 5397 5397
5359 5361 5362 5363 5365 5367 5368 5369 5371 5373 5374 5375 5376 5377 5378 5379 5381 5381 5382 5383 5383 5382 5380 5380 5380 5380 5380 5381 5381 5382 5383 5383 5384 5384 5385 5385 5385 5386 5387 5388 5389 5389 5390
5351 5353 5354 5355 5357 5358 5359 5360 5361 5362 5364 5366 5368 5369 5371 5372 5373 5374 5375 5375 5374 5373 5372 5371 5372 5373 5374 5374 5375 5376 5377 5378 5378 5378 5379 5379 5379 5380 5381 5381 5382 5383 5383
5343 5345 5346 5348 5350 5351 5352 5353 5353 5354 5355 5357 5359 5361 5363 5364 5365 5366 5366 5365 5364 5364 5364 5364 5365 5366 5367 5368 5370 5371 5371 5372 5372 5373 5373 5374 5374 5375 5375 5376 5376 5377 5378
5336 5338 5340 5341 5342 5344 5345 5345 5346 5347 5348 5349 5351 5352 5354 5355 5355 5356 5356 5356 5356 5356 5356 5357 5359 5360 5362 5363 5364 5365 5366 5367 5368 5369 5369 5370 5370 5371 5371 5371 5372 5372 5372
5329 5330 5332 5333 5335 5336 5337 5338 5339 5340 5341 5342 5343 5344 5346 5346 5346 5346 5347 5348 5349 5350 5351 5352 5354 5356 5358 5360 5361 5361 5362 5363 5364 5364 5365 5366 5366 5367 5367 5367 5368 5368 5368
5322 5323 5324 5325 5327 5329 5330 5331 5332 5333 5334 5335 5335 5337 5338 5338 5338 5338 5339 5341 5343 5344 5346 5348 5350 5352 5354 5356 5357 5358 5359 5360 5360 5361 5362 5363 5363 5363 5363 5364 5364 5364 5364
5316 5316 5318 5319 5320 5322 5323 5324 5325 5326 5327 5327 5328 5329 5330 5330 5330 5331 5332 5334 5336 5339 5341 5343 5346 5348 5351 5353 5354 5355 5356 5357 5358 5359 5360 5360 5360 5360 5361 5361 5361 5361 5361
5309 5310 5312 5313 5314 5315 5316 5317 5318 5319 5320 5320 5321 5322 5323 5323 5324 5325 5327 5329 5331 5334 5337 5339 5342 5344 5347 5349 5351 5353 5354 5355 5357 5357 5358 5357 5357 5357 5358 5358 5358 5358 5359
5302 5303 5304 5306 5307 5308 5309 5310 5311 5312 5313 5314 5316 5316 5317 5319 5320 5321 5323 5325 5328 5330 5333 5336 5338 5341 5344 5346 5348 5350 5352 5353 5355 5355 5356 5355 5355 5355 5355 5355 5355 5356 5355
5295 5296 5297 5299 5300 5301 5302 5303 5304 5306 5307 5309 5310 5311 5313 5314 5316 5318 5320 5322 5325 5328 5330 5333 5336 5338 5340 5343 5345 5348 5350 5352 5353 5353 5354 5354 5354 5354 5354 5354 5353 5354 5353